Other Public Products
Issued by NWS Grand Forks, ND

Home | Current Version | Previous Version | Text Only | Print | Product List | Glossary On
Versions: 1 2 3 4 5 6 7 8 9 10 11 12 13 14 15 16 17 18 19 20 21 22 23 24 25 26 27 28 29 30 31 32 33 34 35 36 37 38 39 40 41 42 43 44 45 46 47 48 49 50
000
FPUS83 KFGF 270931
OPUFGF
PRAIRIE TO PINES WEATHER ROUNDUP
NATIONAL WEATHER SERVICE EASTERN NORTH DAKOTA/GRAND FORKS ND
400 AM CDT WED JUL 27 2016

 **SATELLITE DATA USED TO AUGMENT SKY COVER AT AUTOMATED STATIONS**
 *****  WEATHER ACROSS EASTERN NORTH DAKOTA  *****

CITY           SKY/WX    TMP DP  RH WIND       PRES   REMARKS
GRAND FORKS    CLOUDY    65  61  87 N8        30.01R
GRAND FORKS AF CLOUDY    64  62  90 N8        30.03R
GRAND CITY NWS   N/A     64 N/A N/A N2          N/A
BUXTON           N/A     65  65  99 NE6         N/A
DEVILS LAKE    CLOUDY    62  59  90 NE9       30.08R
FARGO          LGT RAIN  68  65  90 CALM      30.00R
WAHPETON ARPT  CLOUDY    64  61  88 N7        29.99F
$$

 *****  WEATHER ACROSS CENTRAL AND WESTERN NORTH DAKOTA  *****

CITY           SKY/WX    TMP DP  RH WIND       PRES   REMARKS
JAMESTOWN      PTCLDY    62  61  96 NW5       30.03R
BISMARCK       PTCLDY    63  60  90 N6        30.07R
MINOT          PTCLDY    62  59  90 N5        30.10R
MINOT AFB      CLEAR     63  57  82 E13       30.08F
GARRISON         N/A     62  62 100 NE3       30.09S
WILLISTON      CLOUDY    61  53  75 NE5       30.10S
DICKINSON      PTCLDY    57  56  96 N6        30.08F
HETTINGER      CLEAR     56  53  90 NE3       30.09F
$$

 *****  OTHER OBSERVATIONS NORTHEAST NORTH DAKOTA  *****

CITY           SKY/WX    TMP DP  RH WIND       PRES   REMARKS
WALHALLA       FAIR      57  55  94 W3        30.09R
LANGDON        CLOUDY    61  57  88 NE8       30.10R
CAVALIER       FAIR      59  57  94 NW8       30.08R
GRAFTON        FAIR      61  59  94 N7        30.07R
CANDO          CLOUDY    63  61  94 NE6       30.12R
FORT TOTTEN      N/A     63  60  91 NE3       29.95S
ROLLA          CLOUDY    59  57  94 N7        30.13R
RUGBY          NOT AVBL
 ***** THE ABOVE OBSERVATIONS ARE NON NWS ARE NOT QUALITY
        CONTROLLED AND MAY MIS-REPORT RAIN FOR SNOW...
$$

 *****  OTHER OBSERVATIONS SOUTHEAST NORTH DAKOTA *****

CITY           SKY/WX    TMP DP  RH WIND       PRES   REMARKS
COOPERSTOWN    NOT AVBL
VALLEY CITY    PTSUNNY   64  64 100 N8        30.04R
OAKES            N/A    N/A N/A N/A MISG        N/A
GWINNER        FAIR      64  64 100 NE9       29.98F
SHEYENNE NWR     N/A     66  65  97 CALM      29.95S
BUFFALO          N/A     64  61  88 NE7         N/A
WYNDMERE         N/A     64  64 100 E2          N/A
 ***** THE ABOVE OBSERVATIONS ARE NON NWS ARE NOT QUALITY
       CONTROLLED AND MAY MIS-REPORT RAIN FOR SNOW...
$$

  *****  WEATHER ACROSS NORTHERN MINNESOTA  *****

CITY           SKY/WX    TMP DP  RH WIND       PRES   REMARKS
FLAG ISLAND    PTCLDY    64  55  72 NE7       30.03R
WARROAD        MOCLDY    59  54  82 NW5       30.04S
ROSEAU         MOCLDY    59  54  82 NW3       30.04R
HALLOCK        MOCLDY    59  55  88 N5        30.05R
THF RVR FALLS  CLOUDY    64  58  80 NE7       30.03S
HALSTAD          N/A     64  61  91 NE9         N/A
FOSSTON        CLOUDY    64  57  77 NE7       30.01S
BAUDETTE       CLOUDY    66  56  70 N7        30.01S
WASKISH        CLOUDY    64  57  77 NE3       30.00F
CROOKSTON      CLOUDY    64  61  88 N9        30.01S
$$
  *****  WEATHER ACROSS CENTRAL AND WEST MINNESOTA  *****

CITY           SKY/WX    TMP DP  RH WIND       PRES   REMARKS
BEMIDJI        CLOUDY    66  59  77 N8        30.00S
PARK RAPIDS    CLOUDY    70  65  84 N5        29.98R
WADENA         CLOUDY    66  64  94 CALM      29.97S
DETROIT LAKES  CLOUDY    66  64  94 CALM      30.00F
MOORHEAD       DRIZZLE   66  64  94 CALM      30.00S
FERGUS FALLS   CLOUDY    64  64 100 NW9       30.00F
ELBOW LAKE     RAIN      66  66  99 W9        29.99F
MORRIS MN      TSTM      68  66  94 CALM      29.95F
STAPLES        CLOUDY    64  63  94 CALM      29.97S
WHEATON        RAIN      68  66  94 NW8       29.99F
$$
  *****  WEATHER ELSEWHERE ACROSS MINNESOTA  *****

CITY           SKY/WX    TMP DP  RH WIND       PRES   REMARKS
DULUTH         CLOUDY    69  67  93 CALM      29.97R
INTRNTL FALLS  CLOUDY    67  56  67 NE3       30.00R
ELY            CLOUDY    64  57  77 CALM      30.01R
CLOQUET        MOCLDY    64  61  88 SW3       29.97F
BRAINERD       CLOUDY    64  62  93 CALM      29.97S
HIBBING        CLOUDY    65  60  84 NE5       29.98R
ALEXANDRIA     LGT RAIN  69  67  93 CALM      29.99S
SAINT CLOUD    CLOUDY    68  66  93 CALM      29.97S
MINNEAPOLIS    CLOUDY    78  68  71 SW7       29.97S
$$

  *****  WEATHER ACROSS SOUTH DAKOTA  *****

CITY           SKY/WX    TMP DP  RH WIND       PRES   REMARKS
SIOUX FALLS    CLOUDY    75  63  66 SW14G25   29.94S
BROOKINGS      MOCLDY    69  65  86 S6        29.94F
WATERTOWN      CLOUDY    66  63  90 NE9       29.96F
HURON          CLOUDY    69  66  90 NW18      29.93R
SISSETON         N/A     67  66  97 N10       29.97F
ABERDEEN       CLOUDY    68  62  81 E6        29.97S
MITCHELL       CLOUDY    72  62  71 W6        29.97R
PIERRE         MOCLDY    64  61  90 CALM      29.98R
MOBRIDGE       CLEAR     66  62  87 N5        30.01R
RAPID CITY     CLEAR     63  60  90 NW13      30.08S
$$

  *****  SOME WEATHER IN NEARBY STATES *****

CITY           SKY/WX    TMP DP  RH WIND       PRES   REMARKS
GLASGOW MT     CLOUDY    62  60  93 SE9       30.06S
GREAT FALLS MT CLEAR     54  51  90 W7        30.15R
CHEYENNE WY    PTCLDY    59  45  59 CALM      30.21F
SCOTTSBLUFF NE CLOUDY    67  57  70 S15G23    30.08F
OMAHA NE       CLOUDY    74  66  76 S5        30.02R
DES MOINES IA  PTCLDY    71  65  81 CALM      30.00S
DAVENPORT IA   CLEAR     64  62  93 N5        30.01S
CHICAGO IL     CLEAR     70  63  78 CALM      29.99S
EAU CLAIRE WI  MOCLDY    70  68  93 CALM      29.98R
LA CROSSE WI   CLEAR     72  68  87 S7        29.99R
$$

  *****  SOME NATIONAL WEATHER *****

CITY           SKY/WX    TMP DP  RH WIND       PRES   REMARKS
LA GUARDIA NY  CLOUDY    78  64  61 NE5       29.93S
RALEIGH NC     CLOUDY    78  75  90 CALM      29.96S
ATLANTA GA     PTCLDY    75  73  93 S6        30.04S
NEW ORLEANS LA CLOUDY    80  75  84 W9        29.97R
OKLAHOMA CITY  PTCLDY    73  72  96 S6        29.94F
ALBUQUERQUE NM MOCLDY    72  59  63 S5        30.20S
SALT LAKE CITY CLEAR     74  39  28 S3        30.04S
LOS ANGELES CA PTCLDY    70  62  76 NW8       29.88S
BOISE ID       CLEAR     72  52  49 S6        29.97S
SEATTLE WA     CLEAR     61  58  90 CALM      30.11S
$$

*** WEATHER ACROSS MANITOBA...SASKATCHEWAN AND ONTARIO ***
                ***ONTARIO***

CITY           SKY/WX    TMP DP  RH WIND       PRES   REMARKS
GERALDTON      PTCLDY    57  54  88 NW7       30.00R
THUNDER BAY    PTCLDY    57  54  88 CALM      29.98R
SIOUX LOOKOUT  CLEAR     54  52  94 CALM      30.04S
TORONTO        PTCLDY    68  57  68 W3        29.95F
BIG TROUT LK   NOT AVBL
PICKLE LAKE    NOT AVBL
DRYDEN         CLEAR     59  54  82 NE9G17    30.05R
KENORA         PTCLDY    59  54  82 NE9       30.05R
$$
                *** MANITOBA***

CITY           SKY/WX    TMP DP  RH WIND       PRES   REMARKS
BRANDON        PTCLDY    55  52  88 NE7       30.13R
DAUPHIN        CLEAR     48  48 100 W6        30.15R
ISLAND LAKE    CLOUDY    57  55  94 N3        30.14S
PILOT MOUND      N/A     57  54  88 NE6         N/A
THE PAS        CLEAR     54  52  94 SE7       30.15S
THOMPSON       CLEAR     39  37  93 CALM      30.18R FOG
WINNIPEG       PTCLDY    52  50  93 NW3       30.08S
LYNN LAKE      CLEAR     52  48  87 MISG      30.13F
CHURCHILL      CLEAR     48  46  93 NW7       30.13R
GILLAM         CLOUDY    55  52  88 N9        30.15S
$$
                ***SASKATCHEWAN***

CITY           SKY/WX    TMP DP  RH WIND       PRES   REMARKS
ESTEVAN        PTCLDY    57  55  94 E8        30.11S
KINDERSLEY     PTCLDY    59  54  82 SE8       30.13R
LLOYDMINSTER   CLOUDY    59  54  82 S8        30.11S
PRINCE ALBERT  PTCLDY    54  52  94 CALM      30.14R
REGINA         CLEAR     57  50  77 NE7       30.13F
YORKTON        CLEAR     52  50  93 N6        30.15S FOC1F1C2F2C3F3C4F4C5F5C6F6C7F7C8F8C9F9CaFaCbFbCcFcCdFdCe!


USA.gov is the U.S. government's official web portal to all federal, state and local government web resources and services.